GES001 OERK-OEJN

Flight info

Callsign GES001
Flight time 1h 11m
Altitude 51000
Route UMASU G782 VEMEM
Aircraft GLF5/M-SBDE2E3FGHIJ3J4J5P2RWXY/LB1D1

Departure

Time 2026-04-30 12:09
Airport King Khalid International Airport (OERK)

Arrival

Time 2026-04-30 13:21
Airport King Abdulaziz International Airport (OEJN)
Time Latitude Longitude Altitude Speed Heading
2026-04-30 11:48 24.96387 46.72172 2054 ft 0 kts 240°
2026-04-30 12:01 24.96393 46.72182 2054 ft 2 kts 240°
2026-04-30 12:01 24.96400 46.72197 2054 ft 2 kts 240°
2026-04-30 12:01 24.96407 46.72211 2054 ft 2 kts 241°
2026-04-30 12:02 24.96413 46.72224 2054 ft 1 kts 277°
2026-04-30 12:02 24.96408 46.72236 2054 ft 0 kts 331°
2026-04-30 12:02 24.96405 46.72237 2054 ft 0 kts 331°
2026-04-30 12:04 24.96419 46.72229 2054 ft 6 kts 330°
2026-04-30 12:04 24.96483 46.72187 2054 ft 12 kts 330°
2026-04-30 12:04 24.96554 46.72130 2054 ft 13 kts 296°
2026-04-30 12:05 24.96519 46.72020 2054 ft 16 kts 240°
2026-04-30 12:05 24.96460 46.71913 2054 ft 15 kts 239°
2026-04-30 12:05 24.96425 46.71808 2054 ft 14 kts 285°
2026-04-30 12:05 24.96497 46.71742 2054 ft 13 kts 330°
2026-04-30 12:06 24.96582 46.71687 2054 ft 15 kts 329°
2026-04-30 12:06 24.96690 46.71618 2054 ft 20 kts 330°
2026-04-30 12:06 24.96837 46.71527 2054 ft 27 kts 328°
2026-04-30 12:06 24.97016 46.71413 2054 ft 29 kts 331°
2026-04-30 12:07 24.97190 46.71303 2054 ft 27 kts 329°
2026-04-30 12:07 24.97352 46.71200 2054 ft 25 kts 331°
2026-04-30 12:07 24.97410 46.71070 2054 ft 20 kts 239°
2026-04-30 12:07 24.97341 46.70936 2054 ft 19 kts 240°
2026-04-30 12:08 24.97267 46.70798 2054 ft 22 kts 240°
2026-04-30 12:08 24.97176 46.70626 2054 ft 30 kts 239°
2026-04-30 12:08 24.97092 46.70575 2054 ft 9 kts 150°
2026-04-30 12:08 24.96972 46.70651 2054 ft 53 kts 149°
2026-04-30 12:09 24.96346 46.71051 2054 ft 147 kts 149°
2026-04-30 12:09 24.95290 46.71721 2411 ft 188 kts 147°
2026-04-30 12:09 24.94119 46.72470 3445 ft 199 kts 147°
2026-04-30 12:09 24.92942 46.73217 4007 ft 193 kts 147°
2026-04-30 12:10 24.91778 46.73980 4485 ft 194 kts 146°
2026-04-30 12:10 24.90667 46.74910 5236 ft 204 kts 129°
2026-04-30 12:10 24.89568 46.75696 6480 ft 197 kts 166°
2026-04-30 12:10 24.88153 46.75455 7087 ft 230 kts 209°
2026-04-30 12:11 24.87147 46.74090 8228 ft 235 kts 245°
2026-04-30 12:11 24.86524 46.72578 9771 ft 221 kts 244°
2026-04-30 12:11 24.85881 46.71059 11012 ft 223 kts 244°
2026-04-30 12:11 24.85228 46.69524 12170 ft 230 kts 245°
2026-04-30 12:12 24.84457 46.67713 12222 ft 286 kts 245°
2026-04-30 12:12 24.83532 46.65546 12311 ft 335 kts 245°
2026-04-30 12:12 24.82511 46.63155 13378 ft 347 kts 245°
2026-04-30 12:12 24.81498 46.60784 14924 ft 344 kts 245°
2026-04-30 12:13 24.80463 46.58368 15976 ft 356 kts 245°
2026-04-30 12:13 24.79405 46.55896 17262 ft 360 kts 245°
2026-04-30 12:13 24.78330 46.53391 18498 ft 365 kts 245°
2026-04-30 12:13 24.77234 46.50835 19694 ft 373 kts 245°
2026-04-30 12:14 24.76121 46.48240 21078 ft 376 kts 245°
2026-04-30 12:14 24.75006 46.45645 22343 ft 380 kts 245°
2026-04-30 12:14 24.73867 46.42994 23471 ft 386 kts 245°
2026-04-30 12:14 24.72711 46.40306 24762 ft 386 kts 245°
2026-04-30 12:15 24.71559 46.37631 25861 ft 390 kts 246°
2026-04-30 12:15 24.70406 46.34949 26938 ft 391 kts 246°
2026-04-30 12:15 24.69241 46.32244 27936 ft 393 kts 246°
2026-04-30 12:15 24.68053 46.29492 28871 ft 396 kts 246°
2026-04-30 12:16 24.66850 46.26695 29600 ft 403 kts 246°
2026-04-30 12:16 24.65628 46.23862 30337 ft 409 kts 246°
2026-04-30 12:16 24.64392 46.20998 31168 ft 411 kts 245°
2026-04-30 12:16 24.63173 46.18176 32085 ft 409 kts 245°
2026-04-30 12:17 24.60720 46.12509 34046 ft 408 kts 245°
2026-04-30 12:17 24.59503 46.09694 35079 ft 406 kts 246°
2026-04-30 12:17 24.58279 46.06872 35911 ft 408 kts 245°
2026-04-30 12:18 24.57049 46.04032 36672 ft 410 kts 245°
2026-04-30 12:18 24.55810 46.01172 37539 ft 409 kts 245°
2026-04-30 12:18 24.54579 45.98337 38294 ft 411 kts 245°
2026-04-30 12:18 24.53347 45.95500 39241 ft 409 kts 245°
2026-04-30 12:19 24.52119 45.92674 40273 ft 406 kts 245°
2026-04-30 12:19 24.50891 45.89849 41109 ft 406 kts 245°
2026-04-30 12:19 24.49668 45.87040 41890 ft 405 kts 245°
2026-04-30 12:19 24.48445 45.84229 42718 ft 405 kts 245°
2026-04-30 12:20 24.47220 45.81415 43643 ft 402 kts 244°
2026-04-30 12:20 24.46005 45.78628 44437 ft 401 kts 244°
2026-04-30 12:20 24.44794 45.75866 45268 ft 398 kts 244°
2026-04-30 12:20 24.43570 45.73109 45769 ft 400 kts 244°
2026-04-30 12:21 24.42333 45.70324 46270 ft 400 kts 244°
2026-04-30 12:21 24.41518 45.68490 46620 ft 399 kts 244°
2026-04-30 12:21 24.39882 45.64809 47201 ft 400 kts 244°
2026-04-30 12:21 24.38645 45.62026 47510 ft 402 kts 244°
2026-04-30 12:22 24.37409 45.59248 47941 ft 401 kts 244°
2026-04-30 12:22 24.36175 45.56477 48209 ft 403 kts 244°
2026-04-30 12:22 24.34928 45.53678 48535 ft 403 kts 244°
2026-04-30 12:22 24.33688 45.50896 48850 ft 404 kts 244°
2026-04-30 12:23 24.32444 45.48106 49139 ft 405 kts 244°
2026-04-30 12:23 24.31195 45.45309 49410 ft 405 kts 244°
2026-04-30 12:23 24.29943 45.42506 49667 ft 406 kts 245°
2026-04-30 12:23 24.28702 45.39726 49948 ft 406 kts 244°
2026-04-30 12:24 24.27450 45.36927 50207 ft 407 kts 244°
2026-04-30 12:24 24.26197 45.34126 50455 ft 407 kts 244°
2026-04-30 12:24 24.24940 45.31318 50728 ft 407 kts 244°
2026-04-30 12:24 24.23686 45.28518 50923 ft 408 kts 244°
2026-04-30 12:25 24.22431 45.25718 51031 ft 412 kts 244°
2026-04-30 12:25 24.21142 45.22843 51033 ft 417 kts 244°
2026-04-30 12:25 24.18545 45.17059 51038 ft 428 kts 244°
2026-04-30 12:26 24.15876 45.11120 51048 ft 435 kts 244°
2026-04-30 12:26 24.13148 45.05064 51050 ft 441 kts 244°
2026-04-30 12:27 24.10407 44.98987 51057 ft 445 kts 244°
2026-04-30 12:27 24.07630 44.92836 51065 ft 455 kts 244°
2026-04-30 12:28 24.04784 44.86544 51067 ft 463 kts 244°
2026-04-30 12:28 24.01895 44.80163 51065 ft 470 kts 244°
2026-04-30 12:29 23.98954 44.73675 51069 ft 474 kts 244°
2026-04-30 12:29 23.95990 44.67149 51072 ft 477 kts 244°
2026-04-30 12:30 23.93017 44.60579 51060 ft 478 kts 246°
2026-04-30 12:30 23.91279 44.53513 51054 ft 478 kts 256°
2026-04-30 12:31 23.89763 44.46396 51069 ft 478 kts 256°
2026-04-30 12:31 23.88237 44.39242 51069 ft 479 kts 256°
2026-04-30 12:32 23.86708 44.32092 51068 ft 480 kts 256°
2026-04-30 12:32 23.85172 44.24924 51064 ft 480 kts 256°
2026-04-30 12:33 23.83643 44.17809 51066 ft 480 kts 256°
2026-04-30 12:33 23.82113 44.10706 51069 ft 478 kts 256°
2026-04-30 12:34 23.80584 44.03626 51071 ft 477 kts 256°
2026-04-30 12:34 23.79060 43.96585 51081 ft 476 kts 256°
2026-04-30 12:35 23.77523 43.89499 51077 ft 476 kts 256°
2026-04-30 12:35 23.75978 43.82436 51067 ft 477 kts 256°
2026-04-30 12:36 23.74432 43.75390 51064 ft 477 kts 256°
2026-04-30 12:36 23.72874 43.68305 51063 ft 477 kts 256°
2026-04-30 12:37 23.71312 43.61217 51057 ft 477 kts 256°
2026-04-30 12:37 23.69750 43.54149 51055 ft 476 kts 256°
2026-04-30 12:38 23.68192 43.47111 51054 ft 476 kts 256°
2026-04-30 12:38 23.66630 43.40075 51062 ft 476 kts 256°
2026-04-30 12:39 23.65066 43.33043 51063 ft 476 kts 256°
2026-04-30 12:39 23.63496 43.26001 51074 ft 475 kts 255°
2026-04-30 12:40 23.61922 43.18955 51064 ft 475 kts 255°
2026-04-30 12:40 23.60349 43.11937 51070 ft 475 kts 256°
2026-04-30 12:41 23.58773 43.04913 51071 ft 475 kts 255°
2026-04-30 12:41 23.57195 42.97901 51075 ft 476 kts 255°
2026-04-30 12:42 23.55608 42.90863 51075 ft 476 kts 255°
2026-04-30 12:42 23.54018 42.83827 51065 ft 476 kts 255°
2026-04-30 12:43 23.52432 42.76827 51058 ft 475 kts 255°
2026-04-30 12:43 23.50850 42.69853 51062 ft 475 kts 255°
2026-04-30 12:44 23.49257 42.62846 51074 ft 475 kts 255°
2026-04-30 12:44 23.47683 42.55940 51067 ft 475 kts 256°
2026-04-30 12:45 23.46081 42.48922 51071 ft 475 kts 255°
2026-04-30 12:45 23.44482 42.41935 51064 ft 476 kts 255°
2026-04-30 12:46 23.42879 42.34945 51068 ft 476 kts 255°
2026-04-30 12:46 23.41271 42.27949 51080 ft 475 kts 255°
2026-04-30 12:47 23.39660 42.20951 51082 ft 476 kts 255°
2026-04-30 12:47 23.38042 42.13945 51045 ft 476 kts 255°
2026-04-30 12:48 23.37232 42.10441 50886 ft 480 kts 255°
2026-04-30 12:48 23.36399 42.06842 49213 ft 495 kts 255°
2026-04-30 12:48 23.35566 42.03244 47761 ft 490 kts 255°
2026-04-30 12:48 23.34741 41.99684 46288 ft 485 kts 255°
2026-04-30 12:49 23.33917 41.96144 44530 ft 481 kts 255°
2026-04-30 12:49 23.33100 41.92635 42776 ft 481 kts 255°
2026-04-30 12:49 23.32264 41.89048 41081 ft 485 kts 256°
2026-04-30 12:49 23.31429 41.85466 39489 ft 487 kts 256°
2026-04-30 12:50 23.30588 41.81856 37963 ft 490 kts 257°
2026-04-30 12:50 23.29743 41.78222 37033 ft 491 kts 256°
2026-04-30 12:50 23.28887 41.74563 36326 ft 498 kts 256°
2026-04-30 12:50 23.27676 41.71013 35624 ft 501 kts 245°
2026-04-30 12:51 23.26025 41.67625 34982 ft 501 kts 242°
2026-04-30 12:51 23.24225 41.64375 34320 ft 499 kts 240°
2026-04-30 12:51 23.22366 41.61175 33655 ft 493 kts 239°
2026-04-30 12:51 23.20528 41.58061 33008 ft 485 kts 239°
2026-04-30 12:52 23.18710 41.54996 32384 ft 478 kts 239°
2026-04-30 12:52 23.16906 41.51963 31804 ft 471 kts 239°
2026-04-30 12:52 23.15127 41.48974 31189 ft 465 kts 239°
2026-04-30 12:52 23.13377 41.46037 30577 ft 458 kts 240°
2026-04-30 12:53 23.11650 41.43138 29970 ft 453 kts 239°
2026-04-30 12:53 23.09935 41.40265 29367 ft 448 kts 240°
2026-04-30 12:53 23.08247 41.37434 28783 ft 442 kts 240°
2026-04-30 12:53 23.06568 41.34619 28211 ft 439 kts 240°
2026-04-30 12:54 23.04884 41.31797 27649 ft 439 kts 239°
2026-04-30 12:54 23.03203 41.28983 27087 ft 439 kts 239°
2026-04-30 12:54 23.01515 41.26162 26482 ft 439 kts 239°
2026-04-30 12:54 22.99839 41.23358 25897 ft 438 kts 239°
2026-04-30 12:55 22.98180 41.20588 25313 ft 437 kts 239°
2026-04-30 12:55 22.96531 41.17831 24726 ft 436 kts 239°
2026-04-30 12:55 22.94878 41.15074 24139 ft 436 kts 239°
2026-04-30 12:55 22.93228 41.12323 23536 ft 436 kts 238°
2026-04-30 12:56 22.91579 41.09572 22953 ft 436 kts 238°
2026-04-30 12:56 22.89930 41.06826 22338 ft 434 kts 238°
2026-04-30 12:56 22.88267 41.04057 21737 ft 429 kts 238°
2026-04-30 12:56 22.86626 41.01325 21162 ft 427 kts 238°
2026-04-30 12:57 22.85009 40.98636 20598 ft 424 kts 238°
2026-04-30 12:57 22.83385 40.95936 20031 ft 422 kts 238°
2026-04-30 12:57 22.81779 40.93266 19481 ft 418 kts 238°
2026-04-30 12:57 22.80177 40.90606 18921 ft 416 kts 238°
2026-04-30 12:58 22.78593 40.87977 18368 ft 412 kts 238°
2026-04-30 12:58 22.77019 40.85364 17892 ft 409 kts 238°
2026-04-30 12:58 22.75455 40.82770 17374 ft 408 kts 238°
2026-04-30 12:58 22.73896 40.80184 16843 ft 404 kts 238°
2026-04-30 12:59 22.72360 40.77640 16314 ft 400 kts 238°
2026-04-30 12:59 22.70833 40.75110 15783 ft 396 kts 238°
2026-04-30 12:59 22.69326 40.72616 15262 ft 394 kts 238°
2026-04-30 12:59 22.67819 40.70123 14742 ft 393 kts 238°
2026-04-30 13:00 22.66330 40.67659 14223 ft 389 kts 238°
2026-04-30 13:00 22.64854 40.65220 13713 ft 386 kts 238°
2026-04-30 13:00 22.63389 40.62800 13345 ft 381 kts 238°
2026-04-30 13:00 22.61958 40.60436 13274 ft 369 kts 237°
2026-04-30 13:01 22.60523 40.58068 13182 ft 382 kts 238°
2026-04-30 13:01 22.59057 40.55649 13173 ft 383 kts 238°
2026-04-30 13:01 22.57623 40.53285 13169 ft 376 kts 238°
2026-04-30 13:01 22.56168 40.50888 13187 ft 381 kts 238°
2026-04-30 13:02 22.54695 40.48459 13187 ft 384 kts 238°
2026-04-30 13:02 22.53222 40.46032 13186 ft 384 kts 238°
2026-04-30 13:02 22.51748 40.43606 13191 ft 384 kts 238°
2026-04-30 13:02 22.50265 40.41165 13193 ft 383 kts 238°
2026-04-30 13:03 22.48791 40.38740 13201 ft 384 kts 238°
2026-04-30 13:03 22.47324 40.36329 13206 ft 384 kts 238°
2026-04-30 13:03 22.45844 40.33898 13214 ft 386 kts 237°
2026-04-30 13:03 22.44348 40.31441 13226 ft 386 kts 237°
2026-04-30 13:04 22.42860 40.28998 13227 ft 385 kts 237°
2026-04-30 13:04 22.41383 40.26574 13231 ft 385 kts 237°
2026-04-30 13:04 22.39894 40.24132 13233 ft 385 kts 237°
2026-04-30 13:04 22.38404 40.21689 13230 ft 386 kts 237°
2026-04-30 13:05 22.36912 40.19245 13237 ft 385 kts 237°
2026-04-30 13:05 22.35429 40.16817 13229 ft 387 kts 237°
2026-04-30 13:05 22.33943 40.14383 13227 ft 385 kts 238°
2026-04-30 13:06 22.30939 40.09469 13237 ft 386 kts 238°
2026-04-30 13:06 22.29443 40.07023 13229 ft 385 kts 237°
2026-04-30 13:06 22.27959 40.04598 13225 ft 385 kts 238°
2026-04-30 13:06 22.26411 40.02228 13205 ft 386 kts 230°
2026-04-30 13:07 22.24421 40.00209 13207 ft 388 kts 223°
2026-04-30 13:07 22.22364 39.98240 13185 ft 389 kts 223°
2026-04-30 13:07 22.20308 39.96273 13168 ft 389 kts 223°
2026-04-30 13:07 22.18281 39.94336 13146 ft 389 kts 223°
2026-04-30 13:08 22.16252 39.92397 13130 ft 388 kts 223°
2026-04-30 13:08 22.14207 39.90442 13110 ft 390 kts 223°
2026-04-30 13:08 22.12169 39.88494 13068 ft 390 kts 223°
2026-04-30 13:08 22.10104 39.86524 13067 ft 390 kts 223°
2026-04-30 13:09 22.08049 39.84563 13070 ft 390 kts 223°
2026-04-30 13:09 22.05998 39.82605 13046 ft 390 kts 223°
2026-04-30 13:09 22.03950 39.80652 13035 ft 390 kts 223°
2026-04-30 13:09 22.01899 39.78697 13016 ft 389 kts 223°
2026-04-30 13:10 21.99853 39.76747 13004 ft 388 kts 223°
2026-04-30 13:10 21.97821 39.74811 13015 ft 388 kts 223°
2026-04-30 13:10 21.95779 39.72867 13017 ft 389 kts 223°
2026-04-30 13:10 21.93741 39.70928 12991 ft 388 kts 223°
2026-04-30 13:11 21.91688 39.68974 12672 ft 390 kts 223°
2026-04-30 13:11 21.89647 39.67032 12214 ft 388 kts 223°
2026-04-30 13:11 21.87623 39.65108 11695 ft 385 kts 223°
2026-04-30 13:11 21.85621 39.63205 11181 ft 381 kts 223°
2026-04-30 13:12 21.83593 39.61279 10662 ft 378 kts 223°
2026-04-30 13:12 21.81623 39.59408 10153 ft 376 kts 223°
2026-04-30 13:12 21.79666 39.57551 9647 ft 375 kts 223°
2026-04-30 13:13 21.75763 39.53848 8637 ft 372 kts 222°
2026-04-30 13:13 21.73823 39.52009 8147 ft 371 kts 222°
2026-04-30 13:13 21.69960 39.48349 7178 ft 369 kts 222°
2026-04-30 13:14 21.68038 39.46529 6679 ft 367 kts 222°
2026-04-30 13:14 21.66123 39.44715 6190 ft 365 kts 222°
2026-04-30 13:14 21.62276 39.41077 5218 ft 362 kts 222°
2026-04-30 13:15 21.60382 39.39287 4738 ft 361 kts 223°
2026-04-30 13:15 21.56609 39.35721 3756 ft 359 kts 223°
2026-04-30 13:15 21.54735 39.33946 3280 ft 356 kts 224°
2026-04-30 13:16 21.53341 39.31870 2997 ft 329 kts 248°
2026-04-30 13:16 21.52529 39.29683 2985 ft 302 kts 251°
2026-04-30 13:16 21.51835 39.27637 2966 ft 277 kts 258°
2026-04-30 13:17 21.52963 39.24334 2985 ft 228 kts 324°
2026-04-30 13:17 21.54311 39.23444 2765 ft 228 kts 331°
2026-04-30 13:17 21.56572 39.22223 2699 ft 203 kts 331°
2026-04-30 13:18 21.58234 39.21384 2096 ft 196 kts 337°
2026-04-30 13:18 21.60604 39.20412 1160 ft 171 kts 339°
2026-04-30 13:18 21.61734 39.19966 1073 ft 166 kts 338°
2026-04-30 13:19 21.62715 39.19585 867 ft 134 kts 338°
2026-04-30 13:19 21.63510 39.19273 684 ft 110 kts 337°
2026-04-30 13:19 21.64219 39.18994 564 ft 107 kts 337°
2026-04-30 13:19 21.64927 39.18716 439 ft 108 kts 337°
2026-04-30 13:20 21.65639 39.18438 302 ft 109 kts 336°
2026-04-30 13:20 21.66356 39.18161 155 ft 109 kts 337°
2026-04-30 13:20 21.67071 39.17886 57 ft 106 kts 336°
2026-04-30 13:20 21.67658 39.17649 56 ft 76 kts 340°
2026-04-30 13:21 21.68091 39.17481 56 ft 48 kts 340°
2026-04-30 13:21 21.68359 39.17441 56 ft 15 kts
2026-04-30 13:21 21.68446 39.17454 56 ft 11 kts
2026-04-30 13:22 21.68608 39.17530 56 ft 21 kts 58°
2026-04-30 13:22 21.68633 39.17686 56 ft 20 kts 143°
2026-04-30 13:22 21.68522 39.17834 56 ft 7 kts 22°
2026-04-30 13:23 21.68555 39.17828 56 ft 0 kts 340°